Time,TemperatureF,DewpointF,PressureIn,WindDirection,WindDirectionDegrees,WindSpeedMPH,WindSpeedGustMPH,Humidity,HourlyPrecipIn,Conditions,Clouds,dailyrainin,SoftwareType,DateUTC
2013-04-20 00:00:00,38.1,24.2,30.05,NNW,348,2.0,3.0,57,0.00,CLR,,0.00,WeatherDisplay:10.37,2013-04-20 05:00:00,
2013-04-20 00:10:00,37.8,24.3,30.05,NNW,348,1.0,3.0,58,0.00,CLR,,0.00,WeatherDisplay:10.37,2013-04-20 05:10:00,
2013-04-20 00:15:00,38.0,24.1,30.06,NNW,348,2.0,4.0,57,0.00,CLR,,0.00,WeatherDisplay:10.37,2013-04-20 05:15:00,
2013-04-20 00:20:00,37.9,24.0,30.06,NNW,348,1.0,3.0,57,0.00,CLR,,0.00,WeatherDisplay:10.37,2013-04-20 05:20:00,
2013-04-20 00:25:00,37.7,24.2,30.06,NNW,348,2.0,3.0,58,0.00,CLR,,0.00,WeatherDisplay:10.37,2013-04-20 05:25:00,
2013-04-20 00:30:00,37.8,23.9,30.06,NNW,348,2.0,4.0,57,0.00,CLR,,0.00,WeatherDisplay:10.37,2013-04-20 05:30:00,
2013-04-20 00:35:00,37.7,24.3,30.06,NNW,348,2.0,3.0,58,0.00,CLR,,0.00,WeatherDisplay:10.37,2013-04-20 05:35:00,
2013-04-20 00:40:00,37.4,23.9,30.06,NNW,348,1.0,3.0,58,0.00,CLR,,0.00,WeatherDisplay:10.37,2013-04-20 05:40:00,
2013-04-20 00:45:00,37.1,23.7,30.06,NNW,348,1.0,3.0,58,0.00,CLR,,0.00,WeatherDisplay:10.37,2013-04-20 05:45:00,
2013-04-20 00:50:00,36.8,23.8,30.06,NNW,348,1.0,2.0,59,0.00,CLR,,0.00,WeatherDisplay:10.37,2013-04-20 05:50:00,
2013-04-20 01:00:00,36.0,23.9,30.07,NNW,348,1.0,2.0,61,0.00,CLR,,0.00,WeatherDisplay:10.37,2013-04-20 06:00:00,
2013-04-20 01:10:00,35.5,23.8,30.07,NNW,348,1.0,2.0,62,0.00,CLR,,0.00,WeatherDisplay:10.37,2013-04-20 06:10:00,
2013-04-20 01:15:00,35.3,23.6,30.07,NNW,348,1.0,2.0,62,0.00,CLR,,0.00,WeatherDisplay:10.37,2013-04-20 06:15:00,
2013-04-20 01:20:00,35.5,23.7,30.07,NNW,348,2.0,3.0,62,0.00,CLR,,0.00,WeatherDisplay:10.37,2013-04-20 06:20:00,
2013-04-20 01:25:00,35.5,23.7,30.07,NNW,348,1.0,3.0,62,0.00,CLR,,0.00,WeatherDisplay:10.37,2013-04-20 06:25:00,
2013-04-20 01:31:00,35.5,23.7,30.07,NNW,348,1.0,3.0,62,0.00,CLR,,0.00,WeatherDisplay:10.37,2013-04-20 06:31:00,
2013-04-20 01:40:00,35.7,23.6,30.08,NNW,348,1.0,2.0,61,0.00,CLR,,0.00,WeatherDisplay:10.37,2013-04-20 06:40:00,
2013-04-20 01:45:00,36.0,23.4,30.07,NNW,348,1.0,3.0,60,0.00,CLR,,0.00,WeatherDisplay:10.37,2013-04-20 06:45:00,
2013-04-20 01:50:00,36.2,23.7,30.07,NNW,348,1.0,3.0,60,0.00,CLR,,0.00,WeatherDisplay:10.37,2013-04-20 06:50:00,
2013-04-20 01:55:00,36.3,23.3,30.07,NNW,348,2.0,3.0,59,0.00,CLR,,0.00,WeatherDisplay:10.37,2013-04-20 06:55:00,
2013-04-20 02:01:00,36.3,23.3,30.07,NNW,348,2.0,4.0,59,0.00,CLR,,0.00,WeatherDisplay:10.37,2013-04-20 07:01:00,
2013-04-20 02:10:00,36.2,23.3,30.08,North,349,2.0,4.0,59,0.00,CLR,,0.00,WeatherDisplay:10.37,2013-04-20 07:10:00,
2013-04-20 02:15:00,36.1,23.1,30.08,North,357,2.0,4.0,59,0.00,CLR,,0.00,WeatherDisplay:10.37,2013-04-20 07:15:00,
2013-04-20 02:20:00,35.8,23.2,30.08,North,8,3.0,4.0,60,0.00,CLR,,0.00,WeatherDisplay:10.37,2013-04-20 07:20:00,
2013-04-20 02:25:00,35.5,22.9,30.08,North,10,3.0,4.0,60,0.00,CLR,,0.00,WeatherDisplay:10.37,2013-04-20 07:25:00,
2013-04-20 02:30:00,35.4,22.8,30.08,North,10,3.0,4.0,60,0.00,CLR,,0.00,WeatherDisplay:10.37,2013-04-20 07:30:00,
2013-04-20 02:35:00,35.3,22.7,30.08,North,10,2.0,4.0,60,0.00,CLR,,0.00,WeatherDisplay:10.37,2013-04-20 07:35:00,
2013-04-20 02:40:00,35.2,23.1,30.08,North,10,2.0,4.0,61,0.00,CLR,,0.00,WeatherDisplay:10.37,2013-04-20 07:40:00,
2013-04-20 02:45:00,35.1,23.0,30.08,North,10,2.0,3.0,61,0.00,CLR,,0.00,WeatherDisplay:10.37,2013-04-20 07:45:00,
2013-04-20 02:50:00,35.0,22.9,30.08,North,10,3.0,4.0,61,0.00,CLR,,0.00,WeatherDisplay:10.37,2013-04-20 07:50:00,
2013-04-20 02:55:00,34.9,22.8,30.08,North,10,2.0,4.0,61,0.00,CLR,,0.00,WeatherDisplay:10.37,2013-04-20 07:55:00,
2013-04-20 03:01:00,34.8,22.7,30.08,North,11,3.0,5.0,61,0.00,CLR,,0.00,WeatherDisplay:10.37,2013-04-20 08:01:00,
2013-04-20 03:05:00,34.6,22.5,30.08,NNE,15,3.0,5.0,61,0.00,CLR,,0.00,WeatherDisplay:10.37,2013-04-20 08:05:00,
2013-04-20 03:10:00,34.4,22.4,30.08,NNE,23,3.0,5.0,61,0.00,CLR,,0.00,WeatherDisplay:10.37,2013-04-20 08:10:00,
2013-04-20 03:15:00,34.3,22.2,30.08,NNE,27,3.0,5.0,61,0.00,CLR,,0.00,WeatherDisplay:10.37,2013-04-20 08:15:00,
2013-04-20 03:20:00,34.2,22.5,30.08,NNE,27,3.0,5.0,62,0.00,CLR,,0.00,WeatherDisplay:10.37,2013-04-20 08:20:00,
2013-04-20 03:25:00,34.1,22.5,30.08,NNE,27,3.0,5.0,62,0.00,CLR,,0.00,WeatherDisplay:10.37,2013-04-20 08:25:00,
2013-04-20 03:31:00,34.2,22.5,30.09,NNE,27,3.0,5.0,62,0.00,CLR,,0.00,WeatherDisplay:10.37,2013-04-20 08:31:00,
2013-04-20 03:40:00,33.5,22.6,30.08,NNE,27,5.0,5.0,64,0.00,CLR,,0.00,WeatherDisplay:10.37,2013-04-20 08:40:00,
2013-04-20 03:45:00,33.4,22.5,30.08,NNE,27,5.0,7.0,64,0.00,CLR,,0.00,WeatherDisplay:10.37,2013-04-20 08:45:00,
2013-04-20 03:50:00,33.3,22.4,30.08,NNE,28,5.0,6.0,64,0.00,CLR,,0.00,WeatherDisplay:10.37,2013-04-20 08:50:00,
2013-04-20 03:55:00,33.1,22.6,30.08,NNE,28,3.0,5.0,65,0.00,CLR,,0.00,WeatherDisplay:10.37,2013-04-20 08:55:00,
2013-04-20 04:01:00,33.0,22.2,30.09,NNE,28,2.0,4.0,64,0.00,CLR,,0.00,WeatherDisplay:10.37,2013-04-20 09:01:00,
2013-04-20 04:10:00,32.9,22.4,30.09,NNE,28,2.0,4.0,65,0.00,CLR,,0.00,WeatherDisplay:10.37,2013-04-20 09:10:00,
2013-04-20 04:20:00,33.1,22.2,30.09,NNE,28,2.0,5.0,64,0.00,CLR,,0.00,WeatherDisplay:10.37,2013-04-20 09:20:00,
2013-04-20 04:25:00,33.1,22.2,30.10,NNE,28,2.0,4.0,64,0.00,CLR,,0.00,WeatherDisplay:10.37,2013-04-20 09:25:00,
2013-04-20 04:31:00,33.0,22.5,30.09,NNE,28,2.0,4.0,65,0.00,CLR,,0.00,WeatherDisplay:10.37,2013-04-20 09:31:00,
2013-04-20 04:40:00,32.8,22.3,30.10,NNE,28,2.0,4.0,65,0.00,CLR,,0.00,WeatherDisplay:10.37,2013-04-20 09:40:00,
2013-04-20 04:45:00,32.9,22.4,30.10,NNE,28,3.0,4.0,65,0.00,CLR,,0.00,WeatherDisplay:10.37,2013-04-20 09:45:00,
2013-04-20 04:50:00,33.1,22.2,30.10,NNE,28,3.0,5.0,64,0.00,CLR,,0.00,WeatherDisplay:10.37,2013-04-20 09:50:00,
2013-04-20 04:55:00,33.2,22.3,30.10,NNE,30,5.0,5.0,64,0.00,CLR,,0.00,WeatherDisplay:10.37,2013-04-20 09:55:00,
2013-04-20 05:01:00,32.9,22.0,30.10,NE,34,3.0,4.0,64,0.00,CLR,,0.00,WeatherDisplay:10.37,2013-04-20 10:01:00,
2013-04-20 05:10:00,33.1,22.2,30.11,NE,36,2.0,4.0,64,0.00,CLR,,0.00,WeatherDisplay:10.37,2013-04-20 10:10:00,
2013-04-20 05:15:00,33.2,22.4,30.11,NE,36,3.0,4.0,64,0.00,CLR,,0.00,WeatherDisplay:10.37,2013-04-20 10:15:00,
2013-04-20 05:20:00,33.1,22.2,30.11,NE,36,2.0,4.0,64,0.00,CLR,,0.00,WeatherDisplay:10.37,2013-04-20 10:20:00,
2013-04-20 05:25:00,32.9,22.0,30.11,NE,36,3.0,4.0,64,0.00,CLR,,0.00,WeatherDisplay:10.37,2013-04-20 10:25:00,
2013-04-20 05:31:00,32.4,21.6,30.11,NE,36,3.0,4.0,64,0.00,CLR,,0.00,WeatherDisplay:10.37,2013-04-20 10:31:00,
2013-04-20 05:40:00,32.0,21.6,30.10,NE,36,3.0,5.0,65,0.00,CLR,,0.00,WeatherDisplay:10.37,2013-04-20 10:40:00,
2013-04-20 05:45:00,31.9,21.8,30.11,NE,36,3.0,5.0,66,0.00,CLR,,0.00,WeatherDisplay:10.37,2013-04-20 10:45:00,
2013-04-20 05:50:00,31.9,21.9,30.11,NE,36,2.0,4.0,66,0.00,CLR,,0.00,WeatherDisplay:10.37,2013-04-20 10:50:00,
2013-04-20 05:55:00,32.4,21.9,30.11,NE,36,3.0,5.0,65,0.00,CLR,,0.00,WeatherDisplay:10.37,2013-04-20 10:55:00,
2013-04-20 06:01:00,32.5,22.0,30.12,NE,38,3.0,5.0,65,0.00,CLR,,0.00,WeatherDisplay:10.37,2013-04-20 11:01:00,
2013-04-20 06:10:00,32.9,22.0,30.12,ENE,67,3.0,4.0,64,0.00,CLR,,0.00,WeatherDisplay:10.37,2013-04-20 11:10:00,
2013-04-20 06:15:00,32.7,21.9,30.13,ENE,70,3.0,5.0,64,0.00,CLR,,0.00,WeatherDisplay:10.37,2013-04-20 11:15:00,
2013-04-20 06:20:00,32.8,22.3,30.13,ENE,71,2.0,4.0,65,0.00,CLR,,0.00,WeatherDisplay:10.37,2013-04-20 11:20:00,
2013-04-20 06:25:00,32.7,22.2,30.13,ENE,73,3.0,5.0,65,0.00,CLR,,0.00,WeatherDisplay:10.37,2013-04-20 11:25:00,
2013-04-20 06:31:00,32.6,22.1,30.13,ENE,77,3.0,6.0,65,0.00,CLR,,0.00,WeatherDisplay:10.37,2013-04-20 11:31:00,
2013-04-20 06:40:00,32.6,22.1,30.13,East,90,1.0,3.0,65,0.00,CLR,,0.00,WeatherDisplay:10.37,2013-04-20 11:40:00,
2013-04-20 06:45:00,32.3,21.9,30.13,East,90,2.0,5.0,65,0.00,CLR,,0.00,WeatherDisplay:10.37,2013-04-20 11:45:00,
2013-04-20 06:51:00,32.2,21.7,30.13,East,90,2.0,5.0,65,0.00,CLR,,0.00,WeatherDisplay:10.37,2013-04-20 11:51:00,
2013-04-20 07:01:00,32.4,22.3,30.13,East,90,6.0,9.0,66,0.00,CLR,,0.00,WeatherDisplay:10.37,2013-04-20 12:01:00,
2013-04-20 07:10:00,33.5,22.3,30.13,East,84,6.0,8.0,63,0.00,CLR,,0.00,WeatherDisplay:10.37,2013-04-20 12:10:00,
2013-04-20 07:15:00,33.7,22.5,30.13,East,85,7.0,10.0,63,0.00,CLR,,0.00,WeatherDisplay:10.37,2013-04-20 12:15:00,
2013-04-20 07:20:00,34.1,22.4,30.13,East,87,8.0,12.0,62,0.00,CLR,,0.00,WeatherDisplay:10.37,2013-04-20 12:20:00,
2013-04-20 07:25:00,34.4,22.7,30.14,East,90,7.0,9.0,62,0.00,CLR,,0.00,WeatherDisplay:10.37,2013-04-20 12:25:00,
2013-04-20 07:31:00,34.5,22.8,30.14,East,92,6.0,9.0,62,0.00,CLR,,0.00,WeatherDisplay:10.37,2013-04-20 12:31:00,
2013-04-20 07:40:00,34.6,23.7,30.15,East,98,5.0,8.0,64,0.00,CLR,,0.00,WeatherDisplay:10.37,2013-04-20 12:40:00,
2013-04-20 07:45:00,34.6,24.0,30.15,East,100,3.0,7.0,65,0.00,CLR,,0.00,WeatherDisplay:10.37,2013-04-20 12:45:00,
2013-04-20 07:50:00,34.6,24.1,30.15,East,99,6.0,8.0,65,0.00,CLR,,0.00,WeatherDisplay:10.37,2013-04-20 12:50:00,
2013-04-20 07:55:00,34.7,24.1,30.14,East,91,7.0,10.0,65,0.00,CLR,,0.00,WeatherDisplay:10.37,2013-04-20 12:55:00,
2013-04-20 08:01:00,35.1,24.1,30.15,East,89,8.0,10.0,64,0.00,CLR,,0.00,WeatherDisplay:10.37,2013-04-20 13:01:00,
2013-04-20 08:10:00,35.9,23.7,30.15,East,84,9.0,13.0,61,0.00,CLR,,0.00,WeatherDisplay:10.37,2013-04-20 13:10:00,
2013-04-20 08:15:00,36.3,24.5,30.15,ENE,75,9.0,13.0,62,0.00,CLR,,0.00,WeatherDisplay:10.37,2013-04-20 13:15:00,
2013-04-20 08:20:00,36.7,25.3,30.15,East,79,9.0,14.0,63,0.00,CLR,,0.00,WeatherDisplay:10.37,2013-04-20 13:20:00,
2013-04-20 08:25:00,36.8,24.2,30.14,East,84,8.0,14.0,60,0.00,CLR,,0.00,WeatherDisplay:10.37,2013-04-20 13:25:00,
2013-04-20 08:31:00,37.3,24.3,30.15,East,92,9.0,16.0,59,0.00,CLR,,0.00,WeatherDisplay:10.37,2013-04-20 13:31:00,
2013-04-20 08:40:00,37.9,24.4,30.16,East,92,8.0,13.0,58,0.00,CLR,,0.00,WeatherDisplay:10.37,2013-04-20 13:40:00,
2013-04-20 08:45:00,37.4,23.6,30.16,East,93,10.0,14.0,57,0.00,CLR,,0.00,WeatherDisplay:10.37,2013-04-20 13:45:00,
2013-04-20 08:50:00,37.6,24.5,30.16,East,89,8.0,12.0,59,0.00,CLR,,0.00,WeatherDisplay:10.37,2013-04-20 13:50:00,
2013-04-20 08:55:00,38.3,25.6,30.16,East,97,7.0,12.0,60,0.00,CLR,,0.00,WeatherDisplay:10.37,2013-04-20 13:55:00,
2013-04-20 09:01:00,39.0,25.9,30.16,ESE,104,5.0,12.0,59,0.00,CLR,,0.00,WeatherDisplay:10.37,2013-04-20 14:01:00,
2013-04-20 09:10:00,39.5,26.0,30.17,East,92,7.0,10.0,58,0.00,OVC,,0.00,WeatherDisplay:10.37,2013-04-20 14:10:00,
2013-04-20 09:15:00,40.3,25.8,30.17,East,86,9.0,12.0,56,0.00,OVC,,0.00,WeatherDisplay:10.37,2013-04-20 14:15:00,
2013-04-20 09:20:00,40.3,24.9,30.17,East,87,8.0,13.0,54,0.00,OVC,,0.00,WeatherDisplay:10.37,2013-04-20 14:20:00,
2013-04-20 09:26:00,40.2,25.7,30.17,East,86,8.0,14.0,56,0.00,OVC,,0.00,WeatherDisplay:10.37,2013-04-20 14:26:00,
2013-04-20 09:31:00,40.0,25.1,30.17,East,94,7.0,14.0,55,0.00,OVC,,0.00,WeatherDisplay:10.37,2013-04-20 14:31:00,
2013-04-20 09:40:00,40.7,26.2,30.17,ESE,102,8.0,12.0,56,0.00,OVC,,0.00,WeatherDisplay:10.37,2013-04-20 14:40:00,
2013-04-20 09:45:00,40.3,25.0,30.17,East,100,7.0,12.0,54,0.00,OVC,,0.00,WeatherDisplay:10.37,2013-04-20 14:45:00,
2013-04-20 09:50:00,40.0,25.1,30.17,East,101,7.0,12.0,55,0.00,OVC,,0.00,WeatherDisplay:10.37,2013-04-20 14:50:00,
2013-04-20 09:55:00,40.4,25.0,30.17,East,80,10.0,12.0,54,0.00,OVC,,0.00,WeatherDisplay:10.37,2013-04-20 14:55:00,
2013-04-20 10:01:00,40.7,25.8,30.17,ENE,75,7.0,12.0,55,0.00,OVC,,0.00,WeatherDisplay:10.37,2013-04-20 15:01:00,
2013-04-20 10:05:00,41.0,25.6,30.17,East,81,8.0,12.0,54,0.00,BKN,,0.00,WeatherDisplay:10.37,2013-04-20 15:05:00,
2013-04-20 10:11:00,41.3,25.4,30.17,East,86,7.0,12.0,53,0.00,BKN,,0.00,WeatherDisplay:10.37,2013-04-20 15:11:00,
2013-04-20 10:15:00,41.5,25.1,30.17,East,96,7.0,16.0,52,0.00,BKN,,0.00,WeatherDisplay:10.37,2013-04-20 15:15:00,
2013-04-20 10:20:00,41.7,25.8,30.18,East,90,8.0,12.0,53,0.00,BKN,,0.00,WeatherDisplay:10.37,2013-04-20 15:20:00,
2013-04-20 10:25:00,42.1,25.7,30.17,East,82,9.0,13.0,52,0.00,BKN,,0.00,WeatherDisplay:10.37,2013-04-20 15:25:00,
2013-04-20 10:31:00,41.8,24.9,30.17,East,86,9.0,14.0,51,0.00,BKN,,0.00,WeatherDisplay:10.37,2013-04-20 15:31:00,
2013-04-20 10:36:00,41.6,24.8,30.17,East,89,10.0,14.0,51,0.00,BKN,,0.00,WeatherDisplay:10.37,2013-04-20 15:36:00,
2013-04-20 10:45:00,41.6,23.8,30.18,East,91,9.0,13.0,49,0.00,BKN,,0.00,WeatherDisplay:10.37,2013-04-20 15:45:00,
2013-04-20 10:51:00,41.8,25.0,30.18,East,91,8.0,13.0,51,0.00,BKN,,0.00,WeatherDisplay:10.37,2013-04-20 15:51:00,
2013-04-20 11:01:00,42.9,26.0,30.18,East,90,8.0,12.0,51,0.00,BKN,,0.00,WeatherDisplay:10.37,2013-04-20 16:01:00,
2013-04-20 11:10:00,43.1,25.7,30.18,East,93,9.0,12.0,50,0.00,BKN,,0.00,WeatherDisplay:10.37,2013-04-20 16:10:00,
2013-04-20 11:15:00,43.2,25.3,30.18,East,92,8.0,16.0,49,0.00,BKN,,0.00,WeatherDisplay:10.37,2013-04-20 16:15:00,
2013-04-20 11:20:00,43.6,26.1,30.18,East,93,7.0,14.0,50,0.00,BKN,,0.00,WeatherDisplay:10.37,2013-04-20 16:20:00,
2013-04-20 11:25:00,43.9,25.0,30.18,East,96,8.0,15.0,47,0.00,BKN,,0.00,WeatherDisplay:10.37,2013-04-20 16:25:00,
2013-04-20 11:31:00,44.3,26.8,30.17,East,91,10.0,16.0,50,0.00,BKN,,0.00,WeatherDisplay:10.37,2013-04-20 16:31:00,
2013-04-20 11:40:00,44.1,25.6,30.17,East,84,8.0,14.0,48,0.00,BKN,,0.00,WeatherDisplay:10.37,2013-04-20 16:40:00,
2013-04-20 11:46:00,44.8,26.3,30.17,East,81,8.0,15.0,48,0.00,BKN,,0.00,WeatherDisplay:10.37,2013-04-20 16:46:00,
2013-04-20 11:51:00,45.1,26.0,30.17,East,82,12.0,15.0,47,0.00,BKN,,0.00,WeatherDisplay:10.37,2013-04-20 16:51:00,
2013-04-20 11:55:00,45.3,27.2,30.17,East,89,8.0,15.0,49,0.00,BKN,,0.00,WeatherDisplay:10.37,2013-04-20 16:55:00,
2013-04-20 12:01:00,45.4,26.3,30.17,East,92,9.0,17.0,47,0.00,BKN,,0.00,WeatherDisplay:10.37,2013-04-20 17:01:00,
2013-04-20 12:05:00,45.6,26.5,30.17,East,90,8.0,13.0,47,0.00,SCT,,0.00,WeatherDisplay:10.37,2013-04-20 17:05:00,
2013-04-20 12:10:00,46.0,25.8,30.16,East,97,5.0,14.0,45,0.00,SCT,,0.00,WeatherDisplay:10.37,2013-04-20 17:10:00,
2013-04-20 12:15:00,46.5,26.8,30.16,East,99,10.0,14.0,46,0.00,SCT,,0.00,WeatherDisplay:10.37,2013-04-20 17:15:00,
2013-04-20 12:20:00,46.6,26.9,30.16,East,90,8.0,14.0,46,0.00,SCT,,0.00,WeatherDisplay:10.37,2013-04-20 17:20:00,
2013-04-20 12:25:00,47.2,26.3,30.15,ESE,104,8.0,14.0,44,0.00,SCT,,0.00,WeatherDisplay:10.37,2013-04-20 17:25:00,
2013-04-20 12:31:00,47.5,26.6,30.15,ESE,115,7.0,13.0,44,0.00,SCT,,0.00,WeatherDisplay:10.37,2013-04-20 17:31:00,
2013-04-20 12:41:00,46.5,24.6,30.15,East,100,9.0,14.0,42,0.00,SCT,,0.00,WeatherDisplay:10.37,2013-04-20 17:41:00,
2013-04-20 12:45:00,47.0,26.7,30.14,East,97,6.0,14.0,45,0.00,SCT,,0.00,WeatherDisplay:10.37,2013-04-20 17:45:00,
2013-04-20 12:51:00,47.7,26.8,30.14,East,99,10.0,16.0,44,0.00,SCT,,0.00,WeatherDisplay:10.37,2013-04-20 17:51:00,
2013-04-20 13:01:00,48.0,26.5,30.14,East,92,8.0,17.0,43,0.00,SCT,,0.00,WeatherDisplay:10.37,2013-04-20 18:01:00,
2013-04-20 13:11:00,48.3,25.7,30.14,East,83,10.0,16.0,41,0.00,FEW,,0.00,WeatherDisplay:10.37,2013-04-20 18:11:00,
2013-04-20 13:20:00,48.2,27.8,30.13,East,84,8.0,14.0,45,0.00,FEW,,0.00,WeatherDisplay:10.37,2013-04-20 18:20:00,
2013-04-20 13:25:00,48.1,26.6,30.13,ENE,72,12.0,17.0,43,0.00,FEW,,0.00,WeatherDisplay:10.37,2013-04-20 18:25:00,
2013-04-20 13:31:00,48.1,27.7,30.12,ENE,76,12.0,17.0,45,0.00,FEW,,0.00,WeatherDisplay:10.37,2013-04-20 18:31:00,
2013-04-20 13:41:00,48.7,27.7,30.12,ENE,71,13.0,17.0,44,0.00,FEW,,0.00,WeatherDisplay:10.37,2013-04-20 18:41:00,
2013-04-20 13:50:00,49.2,28.8,30.12,East,79,8.0,15.0,45,0.00,FEW,,0.00,WeatherDisplay:10.37,2013-04-20 18:50:00,
2013-04-20 13:55:00,49.5,27.9,30.12,East,87,10.0,22.0,43,0.00,FEW,,0.00,WeatherDisplay:10.37,2013-04-20 18:55:00,
2013-04-20 14:01:00,50.0,28.9,30.12,East,85,13.0,17.0,44,0.00,FEW,,0.00,WeatherDisplay:10.37,2013-04-20 19:01:00,
2013-04-20 14:10:00,49.9,28.2,30.11,ENE,74,14.0,17.0,43,0.00,CLR,,0.00,WeatherDisplay:10.37,2013-04-20 19:10:00,
2013-04-20 14:15:00,50.0,27.7,30.11,ENE,72,10.0,20.0,42,0.00,CLR,,0.00,WeatherDisplay:10.37,2013-04-20 19:15:00,
2013-04-20 14:21:00,50.5,29.4,30.11,ENE,78,9.0,16.0,44,0.00,CLR,,0.00,WeatherDisplay:10.37,2013-04-20 19:21:00,
2013-04-20 14:31:00,50.2,28.0,30.11,East,80,9.0,14.0,42,0.00,CLR,,0.00,WeatherDisplay:10.37,2013-04-20 19:31:00,
2013-04-20 14:41:00,51.1,29.9,30.10,East,85,12.0,20.0,44,0.00,CLR,,0.00,WeatherDisplay:10.37,2013-04-20 19:41:00,
2013-04-20 14:45:00,50.6,28.3,30.10,East,88,9.0,17.0,42,0.00,CLR,,0.00,WeatherDisplay:10.37,2013-04-20 19:45:00,
2013-04-20 14:51:00,51.1,28.2,30.10,East,97,9.0,20.0,41,0.00,CLR,,0.00,WeatherDisplay:10.37,2013-04-20 19:51:00,
2013-04-20 14:55:00,51.4,27.8,30.10,East,93,14.0,20.0,40,0.00,CLR,,0.00,WeatherDisplay:10.37,2013-04-20 19:55:00,
2013-04-20 15:01:00,51.3,27.8,30.09,East,88,13.0,20.0,40,0.00,CLR,,0.00,WeatherDisplay:10.37,2013-04-20 20:01:00,
2013-04-20 15:05:00,51.4,27.8,30.09,East,91,13.0,17.0,40,0.00,CLR,,0.00,WeatherDisplay:10.37,2013-04-20 20:05:00,
2013-04-20 15:11:00,51.7,27.5,30.08,East,97,13.0,16.0,39,0.00,CLR,,0.00,WeatherDisplay:10.37,2013-04-20 20:11:00,
2013-04-20 15:15:00,52.3,28.0,30.08,ESE,106,13.0,20.0,39,0.00,CLR,,0.00,WeatherDisplay:10.37,2013-04-20 20:15:00,
2013-04-20 15:20:00,52.0,27.8,30.08,ESE,107,13.0,18.0,39,0.00,CLR,,0.00,WeatherDisplay:10.37,2013-04-20 20:20:00,
2013-04-20 15:25:00,52.0,28.4,30.08,East,98,13.0,20.0,40,0.00,CLR,,0.00,WeatherDisplay:10.37,2013-04-20 20:25:00,
2013-04-20 15:31:00,52.2,28.5,30.08,ESE,110,8.0,17.0,40,0.00,CLR,,0.00,WeatherDisplay:10.37,2013-04-20 20:31:00,
2013-04-20 15:40:00,52.6,28.4,30.08,East,90,8.0,18.0,39,0.00,CLR,,0.00,WeatherDisplay:10.37,2013-04-20 20:40:00,
2013-04-20 15:45:00,52.9,29.8,30.07,East,89,10.0,22.0,41,0.00,CLR,,0.00,WeatherDisplay:10.37,2013-04-20 20:45:00,
2013-04-20 15:50:00,53.0,28.7,30.07,East,82,14.0,21.0,39,0.00,CLR,,0.00,WeatherDisplay:10.37,2013-04-20 20:50:00,
2013-04-20 15:55:00,53.0,29.3,30.07,East,83,13.0,16.0,40,0.00,CLR,,0.00,WeatherDisplay:10.37,2013-04-20 20:55:00,
2013-04-20 16:01:00,52.9,29.8,30.07,East,90,9.0,17.0,41,0.00,CLR,,0.00,WeatherDisplay:10.37,2013-04-20 21:01:00,
2013-04-20 16:10:00,53.7,31.7,30.06,ESE,109,7.0,13.0,43,0.00,CLR,,0.00,WeatherDisplay:10.37,2013-04-20 21:10:00,
2013-04-20 16:16:00,54.1,30.9,30.06,ESE,108,10.0,15.0,41,0.00,CLR,,0.00,WeatherDisplay:10.37,2013-04-20 21:16:00,
2013-04-20 16:21:00,54.1,29.6,30.06,ESE,103,9.0,15.0,39,0.00,CLR,,0.00,WeatherDisplay:10.37,2013-04-20 21:21:00,
2013-04-20 16:25:00,54.7,30.2,30.06,ESE,105,9.0,21.0,39,0.00,CLR,,0.00,WeatherDisplay:10.37,2013-04-20 21:25:00,
2013-04-20 16:31:00,54.3,29.2,30.06,East,100,10.0,17.0,38,0.00,CLR,,0.00,WeatherDisplay:10.37,2013-04-20 21:31:00,
2013-04-20 16:41:00,54.5,30.6,30.06,ESE,108,6.0,12.0,40,0.00,CLR,,0.00,WeatherDisplay:10.37,2013-04-20 21:41:00,
2013-04-20 16:46:00,55.0,30.5,30.06,ESE,115,7.0,13.0,39,0.00,CLR,,0.00,WeatherDisplay:10.37,2013-04-20 21:46:00,
2013-04-20 16:51:00,55.1,30.5,30.06,ESE,121,8.0,12.0,39,0.00,CLR,,0.00,WeatherDisplay:10.37,2013-04-20 21:51:00,
2013-04-20 17:01:00,55.0,29.8,30.06,ESE,123,7.0,12.0,38,0.00,CLR,,0.00,WeatherDisplay:10.37,2013-04-20 22:01:00,
2013-04-20 17:11:00,54.7,31.4,30.06,ESE,118,8.0,13.0,41,0.00,BKN,,0.00,WeatherDisplay:10.37,2013-04-20 22:11:00,
2013-04-20 17:21:00,54.6,32.5,30.06,SE,126,5.0,9.0,43,0.00,BKN,,0.00,WeatherDisplay:10.37,2013-04-20 22:21:00,
2013-04-20 17:25:00,54.8,32.1,30.06,SE,136,5.0,9.0,42,0.00,BKN,,0.00,WeatherDisplay:10.37,2013-04-20 22:25:00,
2013-04-20 17:31:00,54.4,31.2,30.05,ESE,111,9.0,16.0,41,0.00,BKN,,0.00,WeatherDisplay:10.37,2013-04-20 22:31:00,
2013-04-20 17:41:00,54.3,31.0,30.06,SE,135,6.0,10.0,41,0.00,BKN,,0.00,WeatherDisplay:10.37,2013-04-20 22:41:00,
2013-04-20 17:45:00,54.3,32.2,30.06,SE,139,7.0,10.0,43,0.00,BKN,,0.00,WeatherDisplay:10.37,2013-04-20 22:45:00,
2013-04-20 17:51:00,54.2,32.1,30.06,SE,137,6.0,13.0,43,0.00,BKN,,0.00,WeatherDisplay:10.37,2013-04-20 22:51:00,
2013-04-20 17:56:00,54.1,31.5,30.05,SE,134,6.0,10.0,42,0.00,BKN,,0.00,WeatherDisplay:10.37,2013-04-20 22:56:00,
2013-04-20 18:01:00,54.0,31.4,30.05,SE,130,7.0,10.0,42,0.00,BKN,,0.00,WeatherDisplay:10.37,2013-04-20 23:01:00,
2013-04-20 18:11:00,53.9,31.9,30.06,ESE,122,6.0,14.0,43,0.00,FEW,,0.00,WeatherDisplay:10.37,2013-04-20 23:11:00,
2013-04-20 18:15:00,53.9,33.0,30.06,SE,125,6.0,12.0,45,0.00,FEW,,0.00,WeatherDisplay:10.37,2013-04-20 23:15:00,
2013-04-20 18:21:00,53.9,32.5,30.06,SE,143,5.0,9.0,44,0.00,FEW,,0.00,WeatherDisplay:10.37,2013-04-20 23:21:00,
2013-04-20 18:25:00,53.9,31.9,30.05,SE,142,6.0,9.0,43,0.00,FEW,,0.00,WeatherDisplay:10.37,2013-04-20 23:25:00,
2013-04-20 18:31:00,53.8,32.3,30.06,SE,134,8.0,12.0,44,0.00,FEW,,0.00,WeatherDisplay:10.37,2013-04-20 23:31:00,
2013-04-20 18:41:00,53.7,32.2,30.05,SE,135,7.0,13.0,44,0.00,FEW,,0.00,WeatherDisplay:10.37,2013-04-20 23:41:00,
2013-04-20 18:45:00,53.5,32.7,30.05,SE,126,6.0,13.0,45,0.00,FEW,,0.00,WeatherDisplay:10.37,2013-04-20 23:45:00,
2013-04-20 18:50:00,53.4,32.5,30.05,SE,125,6.0,12.0,45,0.00,FEW,,0.00,WeatherDisplay:10.37,2013-04-20 23:50:00,
2013-04-20 18:55:00,53.3,33.6,30.05,ESE,121,6.0,12.0,47,0.00,FEW,,0.00,WeatherDisplay:10.37,2013-04-20 23:55:00,
2013-04-20 19:01:00,53.3,33.5,30.05,ESE,119,6.0,12.0,47,0.00,FEW,,0.00,WeatherDisplay:10.37,2013-04-21 00:01:00,
2013-04-20 19:11:00,53.1,33.9,30.05,ESE,119,6.0,13.0,48,0.00,SCT,,0.00,WeatherDisplay:10.37,2013-04-21 00:11:00,
2013-04-20 19:15:00,53.0,33.8,30.05,ESE,117,6.0,12.0,48,0.00,SCT,,0.00,WeatherDisplay:10.37,2013-04-21 00:15:00,
2013-04-20 19:21:00,52.8,33.6,30.05,ESE,113,5.0,9.0,48,0.00,SCT,,0.00,WeatherDisplay:10.37,2013-04-21 00:21:00,
2013-04-20 19:25:00,52.8,33.1,30.06,ESE,119,6.0,10.0,47,0.00,SCT,,0.00,WeatherDisplay:10.37,2013-04-21 00:25:00,
2013-04-20 19:31:00,52.9,33.7,30.06,ESE,120,6.0,14.0,48,0.00,SCT,,0.00,WeatherDisplay:10.37,2013-04-21 00:31:00,
2013-04-20 19:41:00,52.4,34.3,30.05,ESE,111,6.0,8.0,50,0.00,SCT,,0.00,WeatherDisplay:10.37,2013-04-21 00:41:00,
2013-04-20 19:51:00,52.0,33.9,30.06,East,94,8.0,12.0,50,0.00,SCT,,0.00,WeatherDisplay:10.37,2013-04-21 00:51:00,
2013-04-20 19:56:00,52.0,33.4,30.05,East,89,8.0,13.0,49,0.00,SCT,,0.00,WeatherDisplay:10.37,2013-04-21 00:56:00,
2013-04-20 20:01:00,51.8,33.2,30.06,East,91,8.0,13.0,49,0.00,SCT,,0.00,WeatherDisplay:10.37,2013-04-21 01:01:00,
2013-04-20 20:11:00,51.6,33.0,30.05,East,89,12.0,16.0,49,0.00,BKN,,0.00,WeatherDisplay:10.37,2013-04-21 01:11:00,
2013-04-20 20:15:00,51.4,32.9,30.05,East,89,9.0,14.0,49,0.00,BKN,,0.00,WeatherDisplay:10.37,2013-04-21 01:15:00,
2013-04-20 20:21:00,51.3,32.8,30.06,East,90,7.0,13.0,49,0.00,BKN,,0.00,WeatherDisplay:10.37,2013-04-21 01:21:00,
2013-04-20 20:25:00,51.2,32.6,30.06,East,92,10.0,15.0,49,0.00,BKN,,0.00,WeatherDisplay:10.37,2013-04-21 01:25:00,
2013-04-20 20:31:00,51.2,32.7,30.06,East,94,9.0,15.0,49,0.00,BKN,,0.00,WeatherDisplay:10.37,2013-04-21 01:31:00,
2013-04-20 20:41:00,50.5,33.0,30.07,ESE,103,5.0,9.0,51,0.00,BKN,,0.00,WeatherDisplay:10.37,2013-04-21 01:41:00,
2013-04-20 20:46:00,50.2,33.2,30.07,ESE,102,8.0,13.0,52,0.00,BKN,,0.00,WeatherDisplay:10.37,2013-04-21 01:46:00,
2013-04-20 20:51:00,50.3,33.3,30.07,East,98,8.0,12.0,52,0.00,BKN,,0.00,WeatherDisplay:10.37,2013-04-21 01:51:00,
2013-04-20 20:56:00,50.3,33.3,30.07,East,98,8.0,12.0,52,0.00,BKN,,0.00,WeatherDisplay:10.37,2013-04-21 01:56:00,
2013-04-20 21:01:00,50.3,32.8,30.08,East,97,8.0,13.0,51,0.00,BKN,,0.00,WeatherDisplay:10.37,2013-04-21 02:01:00,
2013-04-20 21:11:00,50.4,32.9,30.07,East,93,9.0,14.0,51,0.00,BKN,,0.00,WeatherDisplay:10.37,2013-04-21 02:11:00,
2013-04-20 21:16:00,50.3,33.3,30.07,East,93,8.0,13.0,52,0.00,BKN,,0.00,WeatherDisplay:10.37,2013-04-21 02:16:00,
2013-04-20 21:21:00,50.3,32.8,30.07,East,90,9.0,14.0,51,0.00,BKN,,0.00,WeatherDisplay:10.37,2013-04-21 02:21:00,
2013-04-20 21:31:00,49.9,32.9,30.07,East,91,10.0,14.0,52,0.00,BKN,,0.00,WeatherDisplay:10.37,2013-04-21 02:31:00,
2013-04-20 21:41:00,49.5,33.0,30.08,East,100,6.0,12.0,53,0.00,BKN,,0.00,WeatherDisplay:10.37,2013-04-21 02:41:00,
2013-04-20 21:45:00,49.1,33.2,30.09,ESE,106,6.0,10.0,54,0.00,BKN,,0.00,WeatherDisplay:10.37,2013-04-21 02:45:00,
2013-04-20 21:51:00,48.8,33.3,30.09,ESE,104,7.0,10.0,55,0.00,BKN,,0.00,WeatherDisplay:10.37,2013-04-21 02:51:00,
2013-04-20 21:55:00,48.8,33.3,30.09,ESE,106,7.0,10.0,55,0.00,BKN,,0.00,WeatherDisplay:10.37,2013-04-21 02:55:00,
2013-04-20 22:01:00,48.8,33.3,30.09,East,99,8.0,10.0,55,0.00,BKN,,0.00,WeatherDisplay:10.37,2013-04-21 03:01:00,
2013-04-20 22:11:00,48.9,33.4,30.09,East,95,8.0,13.0,55,0.00,FEW,,0.00,WeatherDisplay:10.37,2013-04-21 03:11:00,
2013-04-20 22:21:00,48.9,32.9,30.08,East,96,10.0,15.0,54,0.00,FEW,,0.00,WeatherDisplay:10.37,2013-04-21 03:21:00,
2013-04-20 22:25:00,48.9,33.4,30.08,East,94,7.0,15.0,55,0.00,FEW,,0.00,WeatherDisplay:10.37,2013-04-21 03:25:00,
2013-04-20 22:31:00,48.8,33.4,30.09,ESE,103,6.0,10.0,55,0.00,FEW,,0.00,WeatherDisplay:10.37,2013-04-21 03:31:00,
2013-04-20 22:41:00,48.7,33.2,30.09,ESE,109,6.0,13.0,55,0.00,FEW,,0.00,WeatherDisplay:10.37,2013-04-21 03:41:00,
2013-04-20 22:46:00,48.7,33.7,30.09,ESE,107,6.0,10.0,56,0.00,FEW,,0.00,WeatherDisplay:10.37,2013-04-21 03:46:00,
2013-04-20 22:56:00,48.5,33.5,30.09,ESE,105,6.0,12.0,56,0.00,FEW,,0.00,WeatherDisplay:10.37,2013-04-21 03:56:00,
2013-04-20 23:01:00,48.6,33.6,30.09,ESE,106,6.0,12.0,56,0.00,FEW,,0.00,WeatherDisplay:10.37,2013-04-21 04:01:00,
2013-04-20 23:05:00,48.6,33.1,30.09,ESE,108,7.0,10.0,55,0.00,OVC,,0.00,WeatherDisplay:10.37,2013-04-21 04:05:00,
2013-04-20 23:11:00,48.6,33.6,30.09,ESE,108,6.0,9.0,56,0.00,OVC,,0.00,WeatherDisplay:10.37,2013-04-21 04:11:00,
2013-04-20 23:15:00,48.6,33.1,30.08,ESE,109,6.0,9.0,55,0.00,OVC,,0.00,WeatherDisplay:10.37,2013-04-21 04:15:00,
2013-04-20 23:21:00,48.6,33.1,30.08,ESE,112,6.0,10.0,55,0.00,OVC,,0.00,WeatherDisplay:10.37,2013-04-21 04:21:00,
2013-04-20 23:25:00,48.6,33.1,30.08,ESE,117,5.0,9.0,55,0.00,OVC,,0.00,WeatherDisplay:10.37,2013-04-21 04:25:00,
2013-04-20 23:31:00,48.7,32.8,30.08,ESE,118,6.0,12.0,54,0.00,OVC,,0.00,WeatherDisplay:10.37,2013-04-21 04:31:00,
2013-04-20 23:36:00,48.7,32.7,30.08,ESE,120,6.0,9.0,54,0.00,OVC,,0.00,WeatherDisplay:10.37,2013-04-21 04:36:00,
2013-04-20 23:41:00,48.5,33.1,30.08,ESE,118,5.0,12.0,55,0.00,OVC,,0.00,WeatherDisplay:10.37,2013-04-21 04:41:00,
2013-04-20 23:46:00,48.4,33.0,30.08,ESE,113,6.0,9.0,55,0.00,OVC,,0.00,WeatherDisplay:10.37,2013-04-21 04:46:00,
2013-04-20 23:51:00,48.2,32.8,30.08,ESE,112,6.0,8.0,55,0.00,OVC,,0.00,WeatherDisplay:10.37,2013-04-21 04:51:00,
2013-04-20 23:56:00,48.1,32.6,30.08,ESE,110,7.0,9.0,55,0.00,OVC,,0.00,WeatherDisplay:10.37,2013-04-21 04:56:00,